Location: Hungerford
(51.4167°N, 1.5167°W)
Time: 13:50:07
(UTC+00:00)

NOSS 3-4 (A) - Pass Details

Date: 18 September 2020
Orbit: 885 x 1327 km, 63.4° (Epoch: 23 October)

Event Time Altitude Azimuth Distance (km) Brightness Sun altitude
Exits shadow 22:41:29 48° 15° (NNE) 1,249 4.2 -34.6°
Drops below altitude 10° 22:46:25 10° 43° (NE) 2,818 6.1 -34.9°
Sets 22:49:13 0° 47° (NE) 3,839 6.8 -35.1°
